Theta_e
312 314 314 313 314 315 314 312 312 312 312 311 311 311 311 311 311 318 321 321 322 323 340 343 343 347 348 347 348 349 357 359 354 355 355 350 349 347 346 347 346 346 346 350 347
310 312 313 314 314 313 314 314 313 312 312 312 312 312 311 311 319 321 322 319 317 322 337 341 344 347 347 346 348 350 358 358 353 352 352 351 350 347 347 347 349 348 347 347 347
309 309 310 312 314 314 313 314 315 313 311 311 312 313 312 312 325 327 323 318 315 325 334 340 342 344 343 345 346 348 355 353 352 351 351 350 351 349 347 350 348 349 348 348 348
309 309 310 310 312 314 315 314 315 314 311 311 312 312 311 323 332 329 319 318 321 331 335 339 342 344 343 344 345 351 350 354 353 352 352 351 349 350 349 350 345 345 346 347 348
313 312 312 311 310 313 315 315 314 314 312 311 311 311 315 324 326 323 315 316 330 337 338 341 343 342 342 344 347 349 351 351 352 352 351 350 351 351 348 345 345 345 345 345 345
313 313 314 314 311 312 315 316 315 315 313 311 311 310 323 327 325 329 323 329 332 331 339 339 341 339 342 345 347 349 352 351 351 353 351 351 351 350 349 345 345 345 345 344 344
312 313 314 314 312 312 314 317 316 315 314 311 309 319 325 326 324 331 325 329 331 330 333 333 337 340 340 343 344 348 352 353 353 352 353 349 354 352 351 346 345 345 344 344 344
312 313 313 314 313 314 313 317 317 315 315 313 315 327 328 322 324 332 328 328 326 326 328 332 337 339 340 341 347 349 350 355 350 352 351 350 357 351 348 348 346 344 345 344 345
311 313 314 313 314 315 313 318 315 315 314 313 323 329 324 322 325 330 327 325 325 326 330 336 338 341 341 344 345 347 342 343 353 348 350 351 353 349 347 348 347 345 344 345 346
312 314 315 313 314 314 316 316 314 315 316 321 326 328 327 323 326 329 326 326 327 327 330 341 340 341 341 342 344 340 340 341 344 352 350 352 350 347 345 348 348 344 345 345 345
313 314 315 315 315 315 315 322 329 328 325 327 325 328 325 324 328 328 326 326 327 327 336 340 342 341 339 337 335 335 337 339 342 345 351 354 351 348 347 347 349 346 345 346 346
314 314 313 313 315 316 320 326 326 327 329 326 326 326 328 327 329 329 327 327 327 328 334 340 340 336 335 333 334 335 335 337 343 347 351 352 355 351 348 348 349 347 345 347 346
313 313 312 312 314 316 323 325 322 325 328 328 327 326 328 329 330 330 328 328 328 328 332 338 334 334 334 334 334 334 334 335 339 342 350 354 357 357 351 348 347 348 346 345 346
313 313 313 314 315 323 325 326 325 323 331 328 327 327 329 329 330 330 329 329 329 328 333 333 334 334 335 335 334 334 333 335 338 343 356 351 364 354 353 352 350 347 348 346 346
314 315 316 319 325 327 327 325 324 325 339 331 328 327 328 330 331 330 328 329 329 328 330 331 331 333 334 335 332 333 334 337 337 340 341 352 355 354 351 354 353 350 348 347 346
319 320 317 317 321 326 324 323 325 331 339 331 331 329 330 330 330 330 329 329 329 328 328 328 330 332 332 333 331 333 334 338 340 343 341 347 340 348 354 347 350 352 348 347 346
319 318 321 322 328 325 325 326 331 335 335 333 331 330 331 331 331 328 329 329 329 327 328 328 327 330 330 331 332 334 336 339 339 345 347 346 337 349 343 342 343 347 351 348 347
318 319 321 324 325 325 325 328 334 331 334 330 330 331 331 332 331 329 329 330 329 328 327 330 329 327 329 332 332 333 336 338 340 335 334 339 339 343 338 342 344 344 346 349 347
320 322 327 326 326 325 327 331 333 331 330 329 330 330 332 332 331 331 330 331 330 328 329 331 330 329 328 330 331 331 333 333 334 333 333 333 335 335 339 343 344 343 342 345 347
327 330 328 325 326 326 329 331 330 327 327 328 332 332 334 333 332 331 332 331 330 330 330 330 332 331 329 328 328 328 329 335 335 336 337 334 338 335 341 342 343 341 342 342 343
328 334 328 325 326 328 331 332 329 326 328 330 332 332 332 333 334 333 332 332 330 331 330 331 331 332 331 330 330 330 330 331 332 333 333 334 337 337 338 338 342 342 342 344 344
334 336 328 326 329 331 332 330 320 329 331 329 330 332 333 333 333 333 333 333 330 330 330 331 331 333 333 332 332 331 332 332 332 335 334 337 336 334 335 336 338 342 343 344 345
336 334 328 327 334 333 332 330 330 330 331 333 333 332 332 333 335 333 331 331 330 331 331 332 333 333 333 333 333 332 332 331 332 332 334 335 335 336 335 337 337 340 344 346 347
334 336 333 331 332 333 334 333 332 331 330 331 332 332 333 334 334 333 332 330 330 330 337 333 332 334 334 335 335 336 336 334 333 334 334 333 333 336 336 336 339 340 345 346 348
329 333 333 336 333 333 332 332 332 332 332 332 332 332 333 336 336 335 335 334 333 339 332 331 332 332 332 332 332 332 333 334 336 336 337 334 334 333 336 338 337 341 343 346 349
330 331 328 329 329 330 326 332 332 331 332 331 333 332 334 335 334 336 335 338 337 336 336 335 336 335 334 332 332 332 333 332 332 332 333 334 335 333 336 335 338 338 343 348 348
321 324 329 323 329 328 332 331 330 328 328 328 329 330 330 331 331 332 332 332 332 334 335 336 337 339 339 335 334 335 335 334 333 332 333 334 335 335 335 336 337 336 342 346 349
Wind_Speed
11 10 10 8 6 5 5 5 6 7 8 8 8 9 9 9 10 8 10 3 12 10 10 10 9 8 13 5 3 8 4 4 2 1 6 4 2 2 2 5 4 4 7 20 15
11 11 10 9 8 7 6 5 6 7 7 8 8 8 8 9 11 17 13 11 10 15 14 11 12 7 9 5 2 4 3 5 6 6 3 7 3 4 7 7 7 8 11 18 16
11 12 11 10 8 8 7 6 6 6 7 7 7 6 6 6 13 7 19 14 13 17 16 13 5 10 6 3 5 6 7 9 6 5 8 2 4 8 8 6 7 9 12 16 18
13 13 12 11 10 8 7 6 5 5 5 6 6 5 4 5 3 5 11 16 14 16 15 12 11 11 4 6 7 5 6 4 4 6 6 6 0 8 1 8 9 10 12 15 18
14 14 13 12 10 9 8 7 5 4 3 4 5 5 2 9 7 5 11 16 15 14 14 12 10 6 7 4 9 7 6 4 4 4 4 4 6 7 4 5 9 12 12 12 11
16 16 15 13 10 9 9 7 5 4 3 4 6 6 7 15 6 8 12 17 15 14 14 10 5 8 6 4 7 4 1 3 2 2 4 6 6 12 9 10 11 12 12 11 10
16 17 16 14 10 9 9 7 6 3 5 5 7 5 11 7 2 7 15 18 15 13 10 10 7 11 7 6 2 4 8 6 7 6 5 2 6 4 18 12 11 12 10 11 10
17 18 16 13 10 8 7 7 5 4 7 6 6 6 7 8 5 9 15 16 12 13 9 7 9 12 8 2 9 6 6 7 9 10 9 8 4 5 6 10 12 11 10 10 11
18 18 15 12 10 6 5 4 3 4 7 7 5 10 9 8 12 13 14 15 13 11 8 5 12 14 6 12 5 12 5 5 8 8 2 9 4 8 7 9 10 12 11 11 11
18 17 14 11 9 3 6 5 6 8 5 6 12 8 9 13 17 16 15 11 13 11 11 11 9 14 13 10 4 8 10 8 5 9 8 9 6 10 11 10 12 12 12 12 11
21 19 14 12 7 10 14 7 6 7 13 11 11 8 7 14 15 15 14 13 12 11 14 15 13 14 4 2 7 10 8 9 6 4 7 9 7 17 17 13 15 13 13 13 12
23 19 14 11 7 20 9 9 2 7 9 18 7 4 1 13 14 15 15 13 14 15 16 13 13 15 6 4 8 10 11 8 5 4 10 6 7 11 17 16 15 14 16 16 17
24 19 13 8 7 17 15 17 6 5 7 14 13 13 12 12 13 15 16 16 12 16 17 16 14 2 2 8 12 13 8 9 8 8 7 7 9 15 16 17 18 19 20 16 18
24 17 8 10 8 11 14 19 11 6 6 11 12 11 10 13 11 10 20 15 10 14 15 12 18 8 11 12 9 14 7 9 11 13 1 16 2 11 17 19 18 18 20 19 18
22 13 11 17 4 9 7 9 11 6 6 13 12 12 13 16 11 13 15 17 16 12 10 15 12 13 14 15 2 13 8 12 11 15 15 6 10 8 16 16 17 20 19 20 17
13 4 24 7 6 1 5 7 8 7 2 8 10 12 15 16 10 7 12 14 12 14 14 16 13 12 12 6 5 11 13 17 16 15 11 12 9 7 4 2 13 19 20 19 18
7 15 13 6 3 8 5 9 7 8 5 9 13 17 16 13 14 11 13 15 14 10 14 17 19 18 13 15 14 11 14 14 10 8 7 17 8 10 8 5 4 10 19 21 19
8 8 3 6 3 4 9 9 9 5 3 5 4 14 14 12 13 12 13 14 16 17 14 11 15 23 19 21 16 15 13 12 14 10 12 8 3 4 1 5 1 7 7 21 21
4 5 7 6 5 6 8 10 3 2 5 5 9 10 13 13 11 15 13 13 14 15 14 6 7 7 9 19 18 17 16 13 15 17 13 8 4 5 7 7 7 6 6 11 19
7 10 5 5 5 9 8 13 2 5 7 7 13 10 12 15 13 13 13 11 14 12 12 14 12 6 12 8 13 16 17 11 11 12 13 6 9 6 10 9 6 5 7 6 10
8 5 8 6 6 7 9 3 1 4 5 6 9 7 9 11 11 15 11 12 8 7 8 15 14 16 8 11 14 8 13 14 15 12 12 10 4 8 2 1 7 7 4 7 8
11 3 8 8 8 7 9 2 4 10 4 9 7 13 12 12 9 13 17 13 8 6 12 14 14 14 17 17 16 13 16 14 12 17 11 12 11 10 7 2 3 10 6 9 8
5 3 7 10 6 7 3 6 5 6 7 5 7 4 11 11 10 13 14 3 3 8 7 12 9 13 18 16 19 12 14 14 18 16 15 14 11 15 1 6 3 5 12 10 11
5 4 5 6 5 10 3 7 4 5 11 6 10 9 12 13 14 11 13 11 3 11 7 4 17 19 17 19 4 8 20 15 17 15 17 17 18 12 9 7 9 8 14 14 13
2 4 5 1 3 6 4 4 6 6 4 6 8 9 11 11 15 15 14 17 12 9 7 12 19 21 22 25 24 21 20 19 18 19 16 19 20 6 15 22 12 11 12 16 16
5 5 2 3 2 6 5 3 8 7 4 12 5 14 6 13 15 17 17 14 9 16 10 12 16 18 22 26 24 24 23 23 24 24 22 22 21 19 5 13 14 10 13 16 18
13 4 5 4 2 5 5 7 6 6 4 6 9 9 12 10 13 14 15 16 18 18 17 16 15 18 21 21 23 24 22 26 26 25 22 21 21 19 18 4 14 12 13 14 16
Wind_Direction
359 357 354 351 341 324 300 274 266 260 253 254 259 269 282 290 293 269 247 187 202 195 171 192 214 215 232 263 16 279 269 314 341 27 310 24 47 119 354 144 54 48 29 109 155
355 350 344 342 340 329 313 295 278 268 259 253 255 265 281 296 282 259 236 237 226 195 201 198 207 221 245 262 244 348 349 351 353 329 307 180 227 218 212 166 117 101 103 121 139
354 347 339 335 330 328 324 309 291 269 256 245 244 251 272 302 271 235 203 217 201 192 219 227 281 269 310 314 1 325 2 339 298 298 310 88 253 310 244 10 190 114 134 133 142
344 338 334 327 319 318 317 309 299 283 261 242 235 238 258 263 258 73 179 199 183 190 223 225 243 259 331 7 23 297 28 23 305 300 269 236 354 277 203 205 95 121 144 150 173
341 332 325 318 305 300 302 301 295 283 250 209 212 210 238 221 252 120 155 164 167 198 214 219 244 288 334 355 322 13 14 338 23 276 281 272 242 228 184 105 106 127 156 160 172
338 331 324 318 300 286 284 287 289 274 206 190 188 196 237 245 101 149 162 170 187 204 215 238 293 356 281 31 301 12 328 350 113 166 214 212 228 235 141 145 130 146 165 161 167
336 331 324 318 305 276 272 276 280 260 193 175 181 202 247 254 186 181 183 188 197 211 221 230 283 268 346 295 10 288 278 200 152 177 159 166 264 203 226 148 145 168 174 151 166
333 331 324 315 306 285 259 259 269 224 189 175 185 233 269 169 207 185 182 189 198 215 255 263 248 273 265 50 235 260 282 177 135 181 167 203 172 158 164 189 169 164 172 167 166
333 328 320 310 305 288 233 232 231 185 174 175 220 227 227 164 196 183 184 188 195 208 225 258 252 256 243 238 330 242 331 20 145 193 199 225 142 229 213 200 206 176 168 176 179
334 331 320 298 296 230 168 159 127 125 165 231 266 248 217 202 183 174 187 190 194 204 219 223 233 239 226 281 260 345 326 322 352 151 210 233 166 178 195 238 211 192 170 180 176
336 329 317 297 271 164 138 134 198 196 205 226 164 256 141 152 159 185 181 197 205 213 221 199 230 235 215 258 332 292 298 298 49 137 231 235 193 184 181 191 241 198 184 190 177
334 326 313 296 227 175 180 230 330 348 210 220 248 248 235 168 183 185 189 202 203 220 224 223 232 261 36 277 276 286 275 10 149 214 218 258 257 232 184 200 201 210 217 195 176
332 323 307 280 185 183 212 219 301 304 259 170 197 208 182 209 203 182 200 217 202 221 228 249 229 238 257 251 268 269 350 343 315 278 239 268 342 248 212 192 218 206 226 203 190
333 317 293 154 162 187 223 232 249 281 264 138 190 217 186 204 224 206 190 219 228 241 239 232 259 218 234 252 273 291 10 308 289 287 165 223 114 328 194 200 199 217 211 223 196
332 311 173 152 6 199 87 181 201 238 251 160 136 130 180 208 107 181 188 218 242 213 251 234 231 245 248 252 7 292 324 308 293 293 291 33 278 219 162 187 201 205 224 215 214
335 309 157 174 228 298 151 162 200 234 169 153 146 182 189 207 205 129 195 225 235 252 238 256 260 239 261 265 238 288 277 262 251 248 251 255 325 84 209 131 178 192 207 216 211
355 141 155 183 82 157 178 189 217 260 140 150 175 167 196 185 212 180 197 202 225 217 230 233 236 248 230 257 234 235 259 271 260 223 268 224 289 143 224 34 190 182 186 202 213
122 147 194 240 194 202 202 221 257 9 145 79 208 178 204 203 208 196 191 220 214 253 284 231 220 211 216 227 260 242 253 290 308 309 332 185 286 117 49 79 176 157 189 183 205
168 219 214 175 216 212 225 227 297 1 38 252 173 232 205 221 243 202 219 231 222 208 257 293 220 91 219 216 229 243 257 283 289 286 263 263 148 219 104 105 146 182 163 189 188
239 208 124 167 189 218 245 267 29 330 307 244 261 203 240 199 203 240 216 220 239 218 224 267 282 224 200 201 242 261 268 248 223 258 267 287 313 245 163 110 137 165 169 195 196
248 215 131 179 207 231 245 241 85 171 292 276 273 282 262 293 247 226 229 244 203 244 252 256 253 268 219 211 256 184 234 251 274 293 310 290 42 5 294 189 173 175 169 159 188
281 223 150 181 218 226 258 2 13 269 210 266 262 281 292 299 288 273 267 246 47 261 260 245 264 257 251 244 229 250 265 221 228 235 247 294 291 180 145 148 245 153 151 141 169
264 68 166 210 258 213 149 265 281 286 249 299 280 280 305 281 277 270 273 55 30 292 282 282 242 261 256 255 238 235 239 252 263 277 271 266 277 85 170 174 224 230 151 153 166
280 211 153 218 280 290 336 255 262 148 285 286 286 296 271 266 263 256 276 267 180 279 26 315 272 276 281 290 360 261 282 255 270 254 260 250 264 167 187 250 183 203 161 170 177
326 45 1 161 146 311 301 333 282 274 180 275 275 252 294 294 285 271 253 258 229 183 225 249 259 267 273 279 282 285 269 263 250 264 274 279 284 272 340 311 191 172 188 178 182
359 332 312 25 264 275 135 203 303 311 315 287 245 303 328 289 289 296 305 307 293 285 233 263 276 273 270 278 280 277 279 280 276 274 271 267 272 282 206 228 310 178 180 190 184
4 355 284 126 295 267 54 14 354 338 260 311 323 307 290 339 336 310 306 289 282 279 282 284 280 282 272 273 272 261 256 258 260 259 262 264 266 266 276 264 208 253 174 199 197